{"data":{"norad_id":26113,"epoch":"2026-05-20T09:48:00.949248Z","epoch_age_seconds":468774,"freshness":"STALE","line1":"1 26113U 00017A   26140.40834432  .00000106  00000+0  33926-1 0  9992","line2":"2 26113  94.2067 315.0050 7452477 290.9630   8.3365  1.68665746161037","mean_motion":1.68665746,"eccentricity":0.7452477,"inclination_deg":94.2067,"raan_deg":315.005,"arg_perigee_deg":290.963,"mean_anomaly_deg":8.3365,"bstar":0.033926,"rev_number":16103,"period_min":853.75960095656,"perigee_km":1216.4126784498,"apogee_km":45650.324995634,"semimajor_km":29811.505837042,"source":"CELESTRAK","updated_at":"2026-05-25T13:37:55.022072Z"}}